Location: B�rgermoos
(47.6500°N, 9.0667°E)
Time: 14:56:27
(UTC+00:00)

Vanguard 2 Rocket - Pass Details

Date: 05 August 2021
Orbit: 555 x 3324 km, 32.9° (Epoch: 18 September)

Event Time Altitude Azimuth Distance (km) Brightness Sun altitude
Rises 06:19:00 0° 228° (SW) 3,122 9.2 20.6°
Reaches altitude 10° 06:23:44 10° 185° (S) 1,901 8.6 21.4°
Maximum altitude 06:24:23 10° 176° (S) 1,857 8.6 21.5°
Drops below altitude 10° 06:25:01 10° 167° (SSE) 1,857 8.7 21.6°
Sets 06:29:14 0° 122° (ESE) 2,741 10.3 22.3°
